Iron Mountain, MI

4:38 AM CDT on August 29, 2015 (GMT -0500)
East Kingsford | | Change Station
CLOSE
Current Station
Personal Weather Station
Location: Kingsford, MI
Elevation: 1112 ft
Nearby Weather Stations

Elev 1112 ft 45.79 °N, 88.05 °W | Updated 12 minutes ago

Overcast
Overcast
59.7 °F
Feels Like 59.7 °F
N
0.0
Wind Variable Wind from WSW
Gusts 1.0 mph

Today
High -- | Low -- °F
--% Chance of Precip.
Yesterday
High -- | Low -- °F
Precip. -- in
6:09 AM 7:36 PM
Full, 100% visible
Pressure 30.08 in
Visibility 10.0 miles
Clouds Overcast 4700 ft
Dew Point 58 °F
Humidity 93%
Rainfall 0.00 in
Snow Depth Not available.
UV 0 out of 12
Pollen 6.10 out of 12
Air Quality Not available.
Flu Activity Not available.
METAR KIMT 290854Z AUTO 00000KT 10SM OVC047 16/13 A3009 RMK AO2 SLP186 T01610133 53002
Pressure 30.08 in
Visibility 10.0 miles
Clouds Overcast 4700 ft
Dew Point 58 °F
Humidity 93%
Rainfall 0.00 in
Snow Depth Not available.
UV 0 out of 12
Pollen 6.10 out of 12
Air Quality Not available.
Flu Activity Not available.
METAR KIMT 290854Z AUTO 00000KT 10SM OVC047 16/13 A3009 RMK AO2 SLP186 T01610133 53002

10-Day Weather Forecast

×

Almanac

Astronomy

Aug. 29, 2015 Rise Set
Actual Time
Civil Twilight
Nautical Twilight
Astronomical Twilight
Moon
Length of Visible Light
Length of Day
Tomorrow will be .
, % of the Moon is Illuminated

Today's Extremes

State Highs State Lows

Community

WunderPhotos

Upload Photos

1,850,634 photos uploaded!

WunderBlogs® & News

Nearby

Air Quality

  Air Quality AQ Index Pollutant
Not available.

Snow Depth

Station Depth Elevation

Earthquake Activity

City Distance Mag. Time & Date
Minimum magnitude displayed is 2.5.

Coastal Water Temperatures

Place Temperature

Stations

Nearby Weather Stations

Station Location Temp. Windchill Dew Point Humidity Wind Precip. Elev Updated Type